Time,TemperatureF,DewpointF,PressureIn,WindDirection,WindDirectionDegrees,WindSpeedMPH,WindSpeedGustMPH,Humidity,HourlyPrecipIn,Conditions,Clouds,dailyrainin,SoftwareType,DateUTC
2013-02-27 00:00:00,31.8,29.5,29.85,WNW,292,7.0,14.0,91,0.00,,,0.00,VWS V14.00,2013-02-27 06:00:00,
2013-02-27 00:05:00,31.8,29.5,29.85,WNW,292,6.0,12.0,91,0.00,,,0.00,VWS V14.00,2013-02-27 06:05:00,
2013-02-27 00:10:00,31.8,29.5,29.86,WNW,292,8.0,13.0,91,0.00,,,0.00,VWS V14.00,2013-02-27 06:10:00,
2013-02-27 00:15:00,31.8,29.5,29.85,WNW,292,7.0,13.0,91,0.00,,,0.00,VWS V14.00,2013-02-27 06:15:00,
2013-02-27 00:20:00,31.8,29.5,29.85,WNW,292,8.0,17.0,91,0.00,,,0.00,VWS V14.00,2013-02-27 06:20:00,
2013-02-27 00:25:00,31.8,29.5,29.86,WNW,292,7.0,14.0,91,0.00,,,0.00,VWS V14.00,2013-02-27 06:25:00,
2013-02-27 00:30:00,31.8,29.5,29.85,WNW,292,9.0,14.0,91,0.00,,,0.00,VWS V14.00,2013-02-27 06:30:00,
2013-02-27 00:35:00,31.8,29.5,29.85,WNW,292,7.0,15.0,91,0.00,,,0.00,VWS V14.00,2013-02-27 06:35:00,
2013-02-27 00:40:00,31.8,29.2,29.85,WNW,292,7.0,12.0,90,0.00,,,0.00,VWS V14.00,2013-02-27 06:40:00,
2013-02-27 00:45:00,31.7,29.1,29.86,WNW,292,8.0,12.0,90,0.00,,,0.00,VWS V14.00,2013-02-27 06:45:00,
2013-02-27 00:50:00,31.7,29.1,29.86,WNW,292,6.0,13.0,90,0.00,,,0.00,VWS V14.00,2013-02-27 06:50:00,
2013-02-27 00:55:00,31.7,29.1,29.86,WNW,292,8.0,14.0,90,0.00,,,0.00,VWS V14.00,2013-02-27 06:55:00,
2013-02-27 01:00:00,31.7,29.1,29.86,WNW,292,7.0,12.0,90,0.00,,,0.00,VWS V14.00,2013-02-27 07:00:00,
2013-02-27 01:05:00,31.7,29.1,29.85,WNW,292,6.0,12.0,90,0.00,,,0.00,VWS V14.00,2013-02-27 07:05:00,
2013-02-27 01:10:00,31.7,29.1,29.86,WNW,292,8.0,15.0,90,0.00,,,0.00,VWS V14.00,2013-02-27 07:10:00,
2013-02-27 01:15:00,31.7,29.1,29.86,WNW,292,8.0,15.0,90,0.00,,,0.00,VWS V14.00,2013-02-27 07:15:00,
2013-02-27 01:20:00,31.7,29.1,29.86,WNW,292,7.0,11.0,90,0.00,,,0.00,VWS V14.00,2013-02-27 07:20:00,
2013-02-27 01:25:00,31.6,29.3,29.86,WNW,292,7.0,14.0,91,0.00,,,0.00,VWS V14.00,2013-02-27 07:25:00,
2013-02-27 01:30:00,31.6,29.3,29.86,WNW,292,7.0,13.0,91,0.00,,,0.00,VWS V14.00,2013-02-27 07:30:00,
2013-02-27 01:35:00,31.5,29.2,29.86,WNW,292,8.0,16.0,91,0.00,,,0.00,VWS V14.00,2013-02-27 07:35:00,
2013-02-27 01:40:00,31.5,29.2,29.86,WNW,292,8.0,14.0,91,0.00,,,0.00,VWS V14.00,2013-02-27 07:40:00,
2013-02-27 01:45:00,31.5,29.2,29.86,WNW,292,7.0,13.0,91,0.00,,,0.00,VWS V14.00,2013-02-27 07:45:00,
2013-02-27 01:50:00,31.4,29.1,29.86,WNW,292,7.0,12.0,91,0.00,,,0.00,VWS V14.00,2013-02-27 07:50:00,
2013-02-27 01:55:00,31.4,29.1,29.86,WNW,292,6.0,14.0,91,0.00,,,0.00,VWS V14.00,2013-02-27 07:55:00,
2013-02-27 02:00:00,31.4,29.1,29.86,WNW,292,5.0,10.0,91,0.00,,,0.00,VWS V14.00,2013-02-27 08:00:00,
2013-02-27 02:05:00,31.4,29.1,29.86,WNW,292,6.0,14.0,91,0.00,,,0.00,VWS V14.00,2013-02-27 08:05:00,
2013-02-27 02:10:00,31.4,29.1,29.86,WNW,292,5.0,10.0,91,0.00,,,0.00,VWS V14.00,2013-02-27 08:10:00,
2013-02-27 02:15:00,31.3,29.0,29.85,WNW,292,5.0,11.0,91,0.00,,,0.00,VWS V14.00,2013-02-27 08:15:00,
2013-02-27 02:20:00,31.3,29.0,29.85,WNW,292,6.0,11.0,91,0.00,,,0.00,VWS V14.00,2013-02-27 08:20:00,
2013-02-27 02:25:00,31.3,29.0,29.85,WNW,292,6.0,10.0,91,0.00,,,0.00,VWS V14.00,2013-02-27 08:25:00,
2013-02-27 02:30:00,31.2,28.9,29.85,WNW,292,7.0,11.0,91,0.00,,,0.00,VWS V14.00,2013-02-27 08:30:00,
2013-02-27 02:35:00,31.2,28.9,29.85,WNW,292,4.0,11.0,91,0.00,,,0.00,VWS V14.00,2013-02-27 08:35:00,
2013-02-27 02:40:00,31.1,28.8,29.85,WNW,292,5.0,10.0,91,0.00,,,0.00,VWS V14.00,2013-02-27 08:40:00,
2013-02-27 02:45:00,31.1,28.8,29.85,WNW,292,5.0,9.0,91,0.00,,,0.00,VWS V14.00,2013-02-27 08:45:00,
2013-02-27 02:50:00,31.0,28.7,29.85,WNW,292,6.0,10.0,91,0.00,,,0.00,VWS V14.00,2013-02-27 08:50:00,
2013-02-27 02:55:00,31.0,29.0,29.85,WNW,292,6.0,10.0,92,0.00,,,0.00,VWS V14.00,2013-02-27 08:55:00,
2013-02-27 03:00:00,30.9,28.9,29.85,WNW,292,6.0,14.0,92,0.00,,,0.00,VWS V14.00,2013-02-27 09:00:00,
2013-02-27 03:05:00,30.9,28.9,29.85,WNW,292,6.0,10.0,92,0.00,,,0.00,VWS V14.00,2013-02-27 09:05:00,
2013-02-27 03:10:00,30.8,28.8,29.85,WNW,292,5.0,11.0,92,0.00,,,0.00,VWS V14.00,2013-02-27 09:10:00,
2013-02-27 03:15:00,30.8,28.8,29.85,WNW,292,5.0,10.0,92,0.00,,,0.00,VWS V14.00,2013-02-27 09:15:00,
2013-02-27 03:20:00,30.7,28.7,29.85,WNW,292,6.0,10.0,92,0.00,,,0.00,VWS V14.00,2013-02-27 09:20:00,
2013-02-27 03:25:00,30.7,28.7,29.85,WNW,292,5.0,10.0,92,0.00,,,0.00,VWS V14.00,2013-02-27 09:25:00,
2013-02-27 03:30:00,30.7,28.7,29.85,WNW,292,4.0,9.0,92,0.00,,,0.00,VWS V14.00,2013-02-27 09:30:00,
2013-02-27 03:35:00,30.6,28.6,29.85,WNW,292,4.0,8.0,92,0.00,,,0.00,VWS V14.00,2013-02-27 09:35:00,
2013-02-27 03:40:00,30.6,28.6,29.85,WNW,292,5.0,10.0,92,0.00,,,0.00,VWS V14.00,2013-02-27 09:40:00,
2013-02-27 03:45:00,30.6,28.6,29.85,WNW,292,4.0,8.0,92,0.00,,,0.00,VWS V14.00,2013-02-27 09:45:00,
2013-02-27 03:50:00,30.6,28.6,29.85,WNW,292,4.0,9.0,92,0.00,,,0.00,VWS V14.00,2013-02-27 09:50:00,
2013-02-27 03:55:00,30.5,28.5,29.86,WNW,292,5.0,9.0,92,0.00,,,0.00,VWS V14.00,2013-02-27 09:55:00,
2013-02-27 04:00:00,30.5,28.5,29.86,WNW,292,4.0,8.0,92,0.00,,,0.00,VWS V14.00,2013-02-27 10:00:00,
2013-02-27 04:05:00,30.5,28.5,29.86,West,270,5.0,10.0,92,0.00,,,0.00,VWS V14.00,2013-02-27 10:05:00,
2013-02-27 04:10:00,30.5,28.5,29.87,WNW,292,4.0,9.0,92,0.00,,,0.00,VWS V14.00,2013-02-27 10:10:00,
2013-02-27 04:15:00,30.4,28.4,29.87,West,270,4.0,9.0,92,0.00,,,0.00,VWS V14.00,2013-02-27 10:15:00,
2013-02-27 04:20:00,30.4,28.4,29.87,West,270,5.0,9.0,92,0.00,,,0.00,VWS V14.00,2013-02-27 10:20:00,
2013-02-27 04:25:00,30.4,28.4,29.87,West,270,4.0,7.0,92,0.00,,,0.00,VWS V14.00,2013-02-27 10:25:00,
2013-02-27 04:30:00,30.4,28.4,29.87,West,270,5.0,8.0,92,0.00,,,0.00,VWS V14.00,2013-02-27 10:30:00,
2013-02-27 04:35:00,30.4,28.4,29.87,West,270,5.0,10.0,92,0.00,,,0.00,VWS V14.00,2013-02-27 10:35:00,
2013-02-27 04:40:00,30.4,28.4,29.87,West,270,5.0,8.0,92,0.00,,,0.00,VWS V14.00,2013-02-27 10:40:00,
2013-02-27 04:45:00,30.3,28.3,29.88,West,270,5.0,9.0,92,0.00,,,0.00,VWS V14.00,2013-02-27 10:45:00,
2013-02-27 04:50:00,30.3,28.3,29.88,West,270,4.0,8.0,92,0.00,,,0.00,VWS V14.00,2013-02-27 10:50:00,
2013-02-27 04:55:00,30.3,28.3,29.88,West,270,4.0,10.0,92,0.00,,,0.00,VWS V14.00,2013-02-27 10:55:00,
2013-02-27 05:00:00,30.3,28.3,29.88,West,270,5.0,10.0,92,0.00,,,0.00,VWS V14.00,2013-02-27 11:00:00,
2013-02-27 05:05:00,30.3,28.3,29.88,West,270,5.0,9.0,92,0.00,,,0.00,VWS V14.00,2013-02-27 11:05:00,
2013-02-27 05:10:00,30.3,28.3,29.88,West,270,5.0,10.0,92,0.00,,,0.00,VWS V14.00,2013-02-27 11:10:00,
2013-02-27 05:15:00,30.3,28.3,29.88,West,270,5.0,9.0,92,0.00,,,0.00,VWS V14.00,2013-02-27 11:15:00,
2013-02-27 05:20:00,30.3,28.3,29.88,West,270,4.0,8.0,92,0.00,,,0.00,VWS V14.00,2013-02-27 11:20:00,
2013-02-27 05:25:00,30.3,28.5,29.88,West,270,4.0,8.0,93,0.00,,,0.00,VWS V14.00,2013-02-27 11:25:00,
2013-02-27 05:30:00,30.3,28.5,29.88,West,270,5.0,10.0,93,0.00,,,0.00,VWS V14.00,2013-02-27 11:30:00,
2013-02-27 05:35:00,30.3,28.5,29.89,West,270,5.0,10.0,93,0.00,,,0.00,VWS V14.00,2013-02-27 11:35:00,
2013-02-27 05:40:00,30.3,28.5,29.89,West,270,4.0,9.0,93,0.00,,,0.00,VWS V14.00,2013-02-27 11:40:00,
2013-02-27 05:45:00,30.3,28.5,29.89,West,270,5.0,9.0,93,0.00,,,0.00,VWS V14.00,2013-02-27 11:45:00,
2013-02-27 05:50:00,30.3,28.5,29.89,West,270,5.0,10.0,93,0.00,,,0.00,VWS V14.00,2013-02-27 11:50:00,
2013-02-27 05:55:00,30.3,28.5,29.89,West,270,5.0,10.0,93,0.00,,,0.00,VWS V14.00,2013-02-27 11:55:00,
2013-02-27 06:00:00,30.3,28.3,29.89,West,270,5.0,10.0,92,0.00,,,0.00,VWS V14.00,2013-02-27 12:00:00,
2013-02-27 06:05:00,30.2,28.2,29.89,West,270,5.0,10.0,92,0.00,,,0.00,VWS V14.00,2013-02-27 12:05:00,
2013-02-27 06:10:00,30.2,28.4,29.90,West,270,5.0,10.0,93,0.00,,,0.00,VWS V14.00,2013-02-27 12:10:00,
2013-02-27 06:15:00,30.2,28.4,29.90,West,270,5.0,12.0,93,0.00,,,0.00,VWS V14.00,2013-02-27 12:15:00,
2013-02-27 06:20:00,30.2,28.4,29.90,West,270,4.0,10.0,93,0.00,,,0.00,VWS V14.00,2013-02-27 12:20:00,
2013-02-27 06:25:00,30.2,28.4,29.90,West,270,6.0,10.0,93,0.00,,,0.00,VWS V14.00,2013-02-27 12:25:00,
2013-02-27 06:30:00,30.2,28.4,29.90,West,270,5.0,11.0,93,0.00,,,0.00,VWS V14.00,2013-02-27 12:30:00,
2013-02-27 06:35:00,30.3,28.5,29.90,West,270,5.0,11.0,93,0.00,,,0.00,VWS V14.00,2013-02-27 12:35:00,
2013-02-27 06:40:00,30.3,28.5,29.90,West,270,6.0,15.0,93,0.00,,,0.00,VWS V14.00,2013-02-27 12:40:00,
2013-02-27 06:45:00,30.3,28.5,29.90,West,270,6.0,11.0,93,0.00,,,0.00,VWS V14.00,2013-02-27 12:45:00,
2013-02-27 06:50:00,30.3,28.5,29.90,West,270,6.0,13.0,93,0.00,,,0.00,VWS V14.00,2013-02-27 12:50:00,
2013-02-27 06:55:00,30.4,28.6,29.90,West,270,6.0,12.0,93,0.00,,,0.00,VWS V14.00,2013-02-27 12:55:00,
2013-02-27 07:00:00,30.4,28.6,29.90,West,270,6.0,12.0,93,0.00,,,0.00,VWS V14.00,2013-02-27 13:00:00,
2013-02-27 07:05:00,30.5,28.7,29.90,West,270,7.0,14.0,93,0.00,,,0.00,VWS V14.00,2013-02-27 13:05:00,
2013-02-27 07:10:00,30.5,28.7,29.90,WNW,292,5.0,10.0,93,0.00,,,0.00,VWS V14.00,2013-02-27 13:10:00,
2013-02-27 07:15:00,30.5,28.7,29.90,West,270,5.0,10.0,93,0.00,,,0.00,VWS V14.00,2013-02-27 13:15:00,
2013-02-27 07:20:00,30.6,28.8,29.90,West,270,8.0,14.0,93,0.00,,,0.00,VWS V14.00,2013-02-27 13:20:00,
2013-02-27 07:25:00,30.6,28.8,29.90,WNW,292,7.0,15.0,93,0.00,,,0.00,VWS V14.00,2013-02-27 13:25:00,
2013-02-27 07:30:00,30.6,28.8,29.90,West,270,6.0,12.0,93,0.00,,,0.00,VWS V14.00,2013-02-27 13:30:00,
2013-02-27 07:35:00,30.6,28.6,29.90,West,270,8.0,18.0,92,0.00,,,0.00,VWS V14.00,2013-02-27 13:35:00,
2013-02-27 07:40:00,30.6,28.6,29.90,WNW,292,8.0,22.0,92,0.00,,,0.00,VWS V14.00,2013-02-27 13:40:00,
2013-02-27 07:45:00,30.6,28.6,29.91,West,270,7.0,17.0,92,0.00,,,0.00,VWS V14.00,2013-02-27 13:45:00,
2013-02-27 07:50:00,30.7,28.7,29.91,WNW,292,8.0,17.0,92,0.00,,,0.00,VWS V14.00,2013-02-27 13:50:00,
2013-02-27 07:55:00,30.7,28.7,29.91,West,270,9.0,15.0,92,0.00,,,0.00,VWS V14.00,2013-02-27 13:55:00,
2013-02-27 08:00:00,30.7,28.7,29.91,WNW,292,8.0,16.0,92,0.00,,,0.00,VWS V14.00,2013-02-27 14:00:00,
2013-02-27 08:05:00,30.8,28.8,29.91,West,270,8.0,15.0,92,0.00,,,0.00,VWS V14.00,2013-02-27 14:05:00,
2013-02-27 08:10:00,30.9,28.9,29.92,West,270,9.0,19.0,92,0.00,,,0.00,VWS V14.00,2013-02-27 14:10:00,
2013-02-27 08:15:00,30.9,28.6,29.92,West,270,8.0,15.0,91,0.00,,,0.00,VWS V14.00,2013-02-27 14:15:00,
2013-02-27 08:20:00,30.9,28.6,29.92,West,270,10.0,17.0,91,0.00,,,0.00,VWS V14.00,2013-02-27 14:20:00,
2013-02-27 08:25:00,31.0,28.7,29.92,WNW,292,8.0,15.0,91,0.00,,,0.00,VWS V14.00,2013-02-27 14:25:00,
2013-02-27 08:30:00,31.0,28.4,29.92,West,270,8.0,16.0,90,0.00,,,0.00,VWS V14.00,2013-02-27 14:30:00,
2013-02-27 08:35:00,31.0,28.4,29.92,WNW,292,9.0,18.0,90,0.00,,,0.00,VWS V14.00,2013-02-27 14:35:00,
2013-02-27 08:40:00,31.0,28.4,29.92,West,270,9.0,18.0,90,0.00,,,0.00,VWS V14.00,2013-02-27 14:40:00,
2013-02-27 08:45:00,31.0,28.1,29.92,WNW,292,10.0,16.0,89,0.00,,,0.00,VWS V14.00,2013-02-27 14:45:00,
2013-02-27 08:50:00,31.0,28.4,29.92,WNW,292,7.0,16.0,90,0.00,,,0.00,VWS V14.00,2013-02-27 14:50:00,
2013-02-27 08:55:00,31.1,28.5,29.93,West,270,8.0,14.0,90,0.00,,,0.00,VWS V14.00,2013-02-27 14:55:00,
2013-02-27 09:00:00,31.2,28.3,29.93,WNW,292,8.0,15.0,89,0.00,,,0.00,VWS V14.00,2013-02-27 15:00:00,
2013-02-27 09:05:00,31.2,28.3,29.93,West,270,9.0,16.0,89,0.00,,,0.00,VWS V14.00,2013-02-27 15:05:00,
2013-02-27 09:10:00,31.2,28.3,29.93,WNW,292,9.0,16.0,89,0.00,,,0.00,VWS V14.00,2013-02-27 15:10:00,
2013-02-27 09:15:00,31.3,28.4,29.93,WNW,292,9.0,15.0,89,0.00,,,0.00,VWS V14.00,2013-02-27 15:15:00,
2013-02-27 09:20:00,31.4,28.3,29.93,WNW,292,7.0,15.0,88,0.00,,,0.00,VWS V14.00,2013-02-27 15:20:00,
2013-02-27 09:25:00,31.5,28.4,29.93,WNW,292,9.0,17.0,88,0.00,,,0.00,VWS V14.00,2013-02-27 15:25:00,
2013-02-27 09:30:00,31.6,28.2,29.93,WNW,292,8.0,18.0,87,0.00,,,0.00,VWS V14.00,2013-02-27 15:30:00,
2013-02-27 09:35:00,31.8,28.4,29.93,West,270,9.0,19.0,87,0.00,,,0.00,VWS V14.00,2013-02-27 15:35:00,
2013-02-27 09:40:00,31.8,28.4,29.93,WNW,292,9.0,17.0,87,0.00,,,0.00,VWS V14.00,2013-02-27 15:40:00,
2013-02-27 09:45:00,31.9,28.5,29.93,WNW,292,7.0,14.0,87,0.00,,,0.00,VWS V14.00,2013-02-27 15:45:00,
2013-02-27 09:50:00,32.0,28.6,29.93,WNW,292,9.0,18.0,87,0.00,,,0.00,VWS V14.00,2013-02-27 15:50:00,
2013-02-27 09:55:00,32.1,28.4,29.93,WNW,292,10.0,22.0,86,0.00,,,0.00,VWS V14.00,2013-02-27 15:55:00,
2013-02-27 10:00:00,32.3,28.6,29.93,WNW,292,9.0,15.0,86,0.00,,,0.00,VWS V14.00,2013-02-27 16:00:00,
2013-02-27 10:13:00,32.5,28.8,29.93,West,270,9.0,17.0,86,0.00,,,0.00,VWS V14.00,2013-02-27 16:13:00,
2013-02-27 10:14:00,32.5,28.5,29.94,WNW,295,9.0,18.0,85,0.00,,,0.00,VWS V14.00,2013-02-27 16:14:00,
2013-02-27 10:15:00,32.5,28.5,29.94,WNW,282,4.0,18.0,85,0.00,,,0.00,VWS V14.00,2013-02-27 16:15:00,
2013-02-27 10:19:00,32.7,29.0,29.94,WNW,285,18.0,21.0,86,0.00,,,0.00,VWS V14.00,2013-02-27 16:19:00,
2013-02-27 10:24:00,32.8,29.1,29.94,West,270,14.0,18.0,86,0.00,,,0.00,VWS V14.00,2013-02-27 16:24:00,
2013-02-27 10:29:00,32.8,29.1,29.94,West,263,15.0,19.0,86,0.00,,,0.00,VWS V14.00,2013-02-27 16:29:00,
2013-02-27 10:34:00,32.8,29.1,29.94,WNW,297,12.0,15.0,86,0.01,,,0.01,VWS V14.00,2013-02-27 16:34:00,
2013-02-27 10:39:00,32.9,29.2,29.94,WNW,282,7.0,17.0,86,0.01,,,0.01,VWS V14.00,2013-02-27 16:39:00,
2013-02-27 10:44:00,32.9,29.2,29.94,WNW,283,11.0,19.0,86,0.01,,,0.01,VWS V14.00,2013-02-27 16:44:00,
2013-02-27 10:49:00,32.9,29.2,29.95,West,268,13.0,17.0,86,0.01,,,0.01,VWS V14.00,2013-02-27 16:49:00,
2013-02-27 10:54:00,32.7,28.7,29.95,West,272,10.0,18.0,85,0.01,,,0.01,VWS V14.00,2013-02-27 16:54:00,
2013-02-27 10:59:00,32.6,28.9,29.95,WNW,284,8.0,16.0,86,0.01,,,0.01,VWS V14.00,2013-02-27 16:59:00,
2013-02-27 11:04:00,32.6,28.9,29.95,West,278,12.0,14.0,86,0.01,,,0.01,VWS V14.00,2013-02-27 17:04:00,
2013-02-27 11:09:00,32.7,29.0,29.95,West,279,12.0,12.0,86,0.01,,,0.01,VWS V14.00,2013-02-27 17:09:00,
2013-02-27 11:14:00,32.7,29.0,29.95,NW,305,8.0,15.0,86,0.01,,,0.01,VWS V14.00,2013-02-27 17:14:00,
2013-02-27 11:20:00,32.8,29.4,29.95,WNW,292,7.0,14.0,87,0.01,,,0.01,VWS V14.00,2013-02-27 17:20:00,
2013-02-27 11:28:00,32.8,29.4,29.95,WNW,292,7.0,14.0,87,0.01,,,0.01,VWS V14.00,2013-02-27 17:28:00,
2013-02-27 11:30:00,33.0,29.3,29.95,West,269,8.0,15.0,86,0.01,,,0.01,VWS V14.00,2013-02-27 17:30:00,
2013-02-27 11:33:00,33.0,29.3,29.95,WNW,287,10.0,12.0,86,0.01,,,0.01,VWS V14.00,2013-02-27 17:33:00,
2013-02-27 11:35:00,33.0,29.3,29.95,West,270,7.0,14.0,86,0.01,,,0.01,VWS V14.00,2013-02-27 17:35:00,
2013-02-27 11:38:00,33.1,29.4,29.95,West,280,15.0,17.0,86,0.01,,,0.02,VWS V14.00,2013-02-27 17:38:00,
2013-02-27 11:40:00,33.2,29.5,29.95,WNW,297,6.0,23.0,86,0.01,,,0.02,VWS V14.00,2013-02-27 17:40:00,
2013-02-27 11:43:00,33.4,29.7,29.95,WNW,286,8.0,23.0,86,0.01,,,0.02,VWS V14.00,2013-02-27 17:43:00,
2013-02-27 11:45:00,33.5,29.5,29.95,WNW,284,12.0,23.0,85,0.01,,,0.02,VWS V14.00,2013-02-27 17:45:00,
2013-02-27 11:48:00,33.7,29.7,29.95,West,276,11.0,21.0,85,0.01,,,0.02,VWS V14.00,2013-02-27 17:48:00,
2013-02-27 11:50:00,33.7,29.4,29.95,WNW,293,8.0,21.0,84,0.01,,,0.02,VWS V14.00,2013-02-27 17:50:00,
2013-02-27 11:53:00,33.7,29.4,29.95,West,280,7.0,17.0,84,0.01,,,0.02,VWS V14.00,2013-02-27 17:53:00,
2013-02-27 11:55:00,33.7,29.4,29.95,West,274,12.0,17.0,84,0.01,,,0.02,VWS V14.00,2013-02-27 17:55:00,
2013-02-27 11:58:00,33.5,29.2,29.96,West,274,16.0,20.0,84,0.01,,,0.02,VWS V14.00,2013-02-27 17:58:00,
2013-02-27 12:00:00,33.4,29.1,29.96,WNW,294,6.0,20.0,84,0.01,,,0.02,VWS V14.00,2013-02-27 18:00:00,
2013-02-27 12:03:00,33.3,29.0,29.96,West,261,11.0,16.0,84,0.01,,,0.02,VWS V14.00,2013-02-27 18:03:00,
2013-02-27 12:05:00,33.2,29.2,29.95,West,270,12.0,18.0,85,0.01,,,0.02,VWS V14.00,2013-02-27 18:05:00,
2013-02-27 12:08:00,33.0,28.7,29.96,WNW,297,5.0,17.0,84,0.02,,,0.03,VWS V14.00,2013-02-27 18:08:00,
2013-02-27 12:10:00,33.0,29.0,29.96,West,268,10.0,17.0,85,0.02,,,0.03,VWS V14.00,2013-02-27 18:10:00,
2013-02-27 12:13:00,33.0,29.0,29.96,WNW,289,7.0,15.0,85,0.02,,,0.03,VWS V14.00,2013-02-27 18:13:00,
2013-02-27 12:15:00,32.9,28.6,29.95,WNW,285,7.0,17.0,84,0.02,,,0.03,VWS V14.00,2013-02-27 18:15:00,
2013-02-27 12:18:00,32.9,28.9,29.95,NW,305,7.0,15.0,85,0.02,,,0.03,VWS V14.00,2013-02-27 18:18:00,
2013-02-27 12:20:00,32.8,28.8,29.95,WSW,255,13.0,17.0,85,0.02,,,0.03,VWS V14.00,2013-02-27 18:20:00,
2013-02-27 12:23:00,32.8,28.8,29.95,WSW,254,10.0,17.0,85,0.02,,,0.03,VWS V14.00,2013-02-27 18:23:00,
2013-02-27 12:25:00,32.7,28.7,29.96,WNW,292,6.0,17.0,85,0.02,,,0.03,VWS V14.00,2013-02-27 18:25:00,
2013-02-27 12:28:00,32.7,28.7,29.95,West,280,4.0,11.0,85,0.02,,,0.03,VWS V14.00,2013-02-27 18:28:00,
2013-02-27 12:30:00,32.7,28.7,29.96,WNW,286,11.0,12.0,85,0.02,,,0.03,VWS V14.00,2013-02-27 18:30:00,
2013-02-27 12:33:00,32.7,28.7,29.96,WNW,303,14.0,14.0,85,0.03,,,0.04,VWS V14.00,2013-02-27 18:33:00,
2013-02-27 12:35:00,32.7,28.7,29.95,NW,307,6.0,16.0,85,0.03,,,0.04,VWS V14.00,2013-02-27 18:35:00,
2013-02-27 12:38:00,32.7,28.7,29.96,WNW,295,6.0,14.0,85,0.03,,,0.04,VWS V14.00,2013-02-27 18:38:00,
2013-02-27 12:40:00,32.7,28.7,29.96,WNW,303,9.0,16.0,85,0.03,,,0.04,VWS V14.00,2013-02-27 18:40:00,
2013-02-27 12:43:00,32.7,28.7,29.95,West,276,8.0,17.0,85,0.02,,,0.04,VWS V14.00,2013-02-27 18:43:00,
2013-02-27 12:45:00,32.7,28.7,29.95,WNW,293,5.0,17.0,85,0.02,,,0.04,VWS V14.00,2013-02-27 18:45:00,
2013-02-27 12:48:00,32.9,28.6,29.95,West,268,12.0,19.0,84,0.02,,,0.04,VWS V14.00,2013-02-27 18:48:00,
2013-02-27 12:50:00,33.0,28.7,29.95,WNW,286,7.0,22.0,84,0.02,,,0.04,VWS V14.00,2013-02-27 18:50:00,
2013-02-27 12:53:00,33.0,28.4,29.95,NW,316,11.0,19.0,83,0.02,,,0.04,VWS V14.00,2013-02-27 18:53:00,
2013-02-27 12:55:00,33.1,28.5,29.95,NW,312,12.0,19.0,83,0.02,,,0.04,VWS V14.00,2013-02-27 18:55:00,
2013-02-27 12:58:00,33.1,28.8,29.95,WNW,292,8.0,14.0,84,0.02,,,0.04,VWS V14.00,2013-02-27 18:58:00,
2013-02-27 13:00:00,33.2,28.6,29.95,West,272,13.0,17.0,83,0.02,,,0.04,VWS V14.00,2013-02-27 19:00:00,
2013-02-27 13:03:00,33.3,28.4,29.95,WNW,282,21.0,21.0,82,0.02,,,0.04,VWS V14.00,2013-02-27 19:03:00,
2013-02-27 13:05:00,33.3,28.4,29.95,NW,316,14.0,21.0,82,0.03,,,0.05,VWS V14.00,2013-02-27 19:05:00,
2013-02-27 13:08:00,33.3,28.7,29.95,WNW,287,11.0,17.0,83,0.03,,,0.05,VWS V14.00,2013-02-27 19:08:00,
2013-02-27 13:10:00,33.4,28.5,29.95,WNW,297,18.0,21.0,82,0.03,,,0.05,VWS V14.00,2013-02-27 19:10:00,
2013-02-27 13:13:00,33.4,28.8,29.95,WNW,292,4.0,20.0,83,0.02,,,0.05,VWS V14.00,2013-02-27 19:13:00,
2013-02-27 13:15:00,33.4,29.1,29.95,WNW,288,3.0,20.0,84,0.02,,,0.05,VWS V14.00,2013-02-27 19:15:00,
2013-02-27 13:18:00,33.7,29.4,29.95,WNW,292,11.0,16.0,84,0.02,,,0.05,VWS V14.00,2013-02-27 19:18:00,
2013-02-27 13:20:00,33.9,29.3,29.95,West,268,7.0,16.0,83,0.02,,,0.05,VWS V14.00,2013-02-27 19:20:00,
2013-02-27 13:23:00,34.1,29.5,29.95,West,280,14.0,17.0,83,0.03,,,0.06,VWS V14.00,2013-02-27 19:23:00,
2013-02-27 13:25:00,34.2,29.0,29.95,WNW,284,8.0,17.0,81,0.03,,,0.06,VWS V14.00,2013-02-27 19:25:00,
2013-02-27 13:28:00,34.4,29.5,29.95,West,274,15.0,15.0,82,0.03,,,0.06,VWS V14.00,2013-02-27 19:28:00,
2013-02-27 13:30:00,34.5,29.6,29.95,WNW,284,8.0,15.0,82,0.03,,,0.06,VWS V14.00,2013-02-27 19:30:00,
2013-02-27 13:33:00,34.7,29.8,29.96,West,268,11.0,19.0,82,0.03,,,0.06,VWS V14.00,2013-02-27 19:33:00,
2013-02-27 13:35:00,34.8,29.6,29.95,West,272,11.0,19.0,81,0.03,,,0.06,VWS V14.00,2013-02-27 19:35:00,
2013-02-27 13:38:00,34.8,29.9,29.95,WNW,296,10.0,17.0,82,0.02,,,0.06,VWS V14.00,2013-02-27 19:38:00,
2013-02-27 13:40:00,34.7,29.8,29.95,WNW,282,13.0,17.0,82,0.03,,,0.07,VWS V14.00,2013-02-27 19:40:00,
2013-02-27 13:43:00,34.6,29.4,29.96,WSW,251,10.0,19.0,81,0.03,,,0.07,VWS V14.00,2013-02-27 19:43:00,
2013-02-27 13:45:00,34.5,29.3,29.96,West,278,14.0,19.0,81,0.03,,,0.07,VWS V14.00,2013-02-27 19:45:00,
2013-02-27 13:48:00,34.4,29.5,29.96,West,281,4.0,16.0,82,0.03,,,0.07,VWS V14.00,2013-02-27 19:48:00,
2013-02-27 13:50:00,34.4,29.8,29.96,West,270,10.0,16.0,83,0.03,,,0.07,VWS V14.00,2013-02-27 19:50:00,
2013-02-27 13:53:00,34.3,29.4,29.96,WNW,299,7.0,15.0,82,0.04,,,0.08,VWS V14.00,2013-02-27 19:53:00,
2013-02-27 13:55:00,34.2,29.3,29.96,WNW,286,9.0,18.0,82,0.04,,,0.08,VWS V14.00,2013-02-27 19:55:00,
2013-02-27 13:58:00,34.2,29.6,29.96,West,278,6.0,18.0,83,0.04,,,0.08,VWS V14.00,2013-02-27 19:58:00,
2013-02-27 14:00:00,34.2,29.3,29.96,WNW,297,13.0,18.0,82,0.04,,,0.08,VWS V14.00,2013-02-27 20:00:00,
2013-02-27 14:03:00,34.3,29.7,29.96,WNW,297,4.0,13.0,83,0.04,,,0.08,VWS V14.00,2013-02-27 20:03:00,
2013-02-27 14:05:00,34.3,29.4,29.96,WNW,299,4.0,18.0,82,0.04,,,0.08,VWS V14.00,2013-02-27 20:05:00,
2013-02-27 14:08:00,34.3,29.7,29.96,WNW,298,4.0,16.0,83,0.03,,,0.08,VWS V14.00,2013-02-27 20:08:00,
2013-02-27 14:10:00,34.3,29.7,29.96,WNW,283,5.0,16.0,83,0.04,,,0.09,VWS V14.00,2013-02-27 20:10:00,
2013-02-27 14:13:00,34.3,29.7,29.96,WNW,287,8.0,14.0,83,0.04,,,0.09,VWS V14.00,2013-02-27 20:13:00,
2013-02-27 14:15:00,34.2,29.3,29.96,West,279,12.0,20.0,82,0.04,,,0.09,VWS V14.00,2013-02-27 20:15:00,
2013-02-27 14:18:00,34.1,29.2,29.96,WNW,299,11.0,14.0,82,0.04,,,0.09,VWS V14.00,2013-02-27 20:18:00,
2013-02-27 14:20:00,34.1,29.5,29.96,WNW,295,7.0,14.0,83,0.05,,,0.10,VWS V14.00,2013-02-27 20:20:00,
2013-02-27 14:23:00,34.3,29.7,29.96,West,274,7.0,16.0,83,0.05,,,0.10,VWS V14.00,2013-02-27 20:23:00,
2013-02-27 14:25:00,34.3,29.4,29.96,NW,322,10.0,22.0,82,0.05,,,0.10,VWS V14.00,2013-02-27 20:25:00,
2013-02-27 14:28:00,34.2,29.3,29.96,WNW,299,7.0,18.0,82,0.04,,,0.10,VWS V14.00,2013-02-27 20:28:00,
2013-02-27 14:30:00,34.1,29.2,29.96,West,272,6.0,20.0,82,0.04,,,0.10,VWS V14.00,2013-02-27 20:30:00,
2013-02-27 14:33:00,34.1,29.2,29.97,West,276,10.0,18.0,82,0.04,,,0.10,VWS V14.00,2013-02-27 20:33:00,
2013-02-27 14:35:00,34.0,29.1,29.97,WNW,287,17.0,21.0,82,0.04,,,0.10,VWS V14.00,2013-02-27 20:35:00,
2013-02-27 14:38:00,33.9,29.0,29.97,WNW,289,9.0,17.0,82,0.04,,,0.10,VWS V14.00,2013-02-27 20:38:00,
2013-02-27 14:40:00,33.9,29.0,29.97,NW,321,7.0,17.0,82,0.05,,,0.11,VWS V14.00,2013-02-27 20:40:00,
2013-02-27 14:43:00,33.9,28.7,29.97,WNW,287,7.0,19.0,81,0.04,,,0.11,VWS V14.00,2013-02-27 20:43:00,
2013-02-27 14:45:00,33.9,28.7,29.97,WNW,302,9.0,19.0,81,0.04,,,0.11,VWS V14.00,2013-02-27 20:45:00,
2013-02-27 14:48:00,33.9,28.7,29.97,NW,311,11.0,16.0,81,0.04,,,0.11,VWS V14.00,2013-02-27 20:48:00,
2013-02-27 14:50:00,33.9,29.0,29.97,WNW,302,7.0,16.0,82,0.05,,,0.12,VWS V14.00,2013-02-27 20:50:00,
2013-02-27 14:53:00,34.0,29.4,29.97,West,267,10.0,14.0,83,0.05,,,0.12,VWS V14.00,2013-02-27 20:53:00,
2013-02-27 14:55:00,34.0,29.1,29.97,NW,311,13.0,14.0,82,0.05,,,0.12,VWS V14.00,2013-02-27 20:55:00,
2013-02-27 14:58:00,34.0,29.1,29.97,West,280,6.0,16.0,82,0.04,,,0.12,VWS V14.00,2013-02-27 20:58:00,
2013-02-27 15:00:00,34.0,29.1,29.97,NW,315,3.0,16.0,82,0.04,,,0.12,VWS V14.00,2013-02-27 21:00:00,
2013-02-27 15:03:00,34.0,29.4,29.97,West,274,7.0,12.0,83,0.04,,,0.12,VWS V14.00,2013-02-27 21:03:00,
2013-02-27 15:05:00,34.0,29.1,29.97,WNW,295,13.0,14.0,82,0.05,,,0.13,VWS V14.00,2013-02-27 21:05:00,
2013-02-27 15:08:00,34.0,29.4,29.97,WNW,300,4.0,13.0,83,0.05,,,0.13,VWS V14.00,2013-02-27 21:08:00,
2013-02-27 15:10:00,34.0,29.4,29.97,NNW,329,14.0,14.0,83,0.05,,,0.13,VWS V14.00,2013-02-27 21:10:00,
2013-02-27 15:13:00,34.0,29.4,29.97,West,281,12.0,20.0,83,0.04,,,0.13,VWS V14.00,2013-02-27 21:13:00,
2013-02-27 15:15:00,33.9,29.0,29.98,NW,309,13.0,20.0,82,0.04,,,0.13,VWS V14.00,2013-02-27 21:15:00,
2013-02-27 15:18:00,33.8,28.9,29.98,WNW,282,16.0,18.0,82,0.05,,,0.14,VWS V14.00,2013-02-27 21:18:00,
2013-02-27 15:20:00,33.8,28.6,29.98,NW,317,7.0,18.0,81,0.05,,,0.14,VWS V14.00,2013-02-27 21:20:00,
2013-02-27 15:23:00,33.8,28.9,29.98,West,277,8.0,16.0,82,0.04,,,0.14,VWS V14.00,2013-02-27 21:23:00,
2013-02-27 15:25:00,33.9,28.7,29.98,WNW,301,5.0,16.0,81,0.04,,,0.14,VWS V14.00,2013-02-27 21:25:00,
2013-02-27 15:28:00,33.9,28.7,29.98,NW,305,13.0,14.0,81,0.04,,,0.14,VWS V14.00,2013-02-27 21:28:00,
2013-02-27 15:30:00,34.0,28.8,29.98,WNW,289,6.0,14.0,81,0.04,,,0.14,VWS V14.00,2013-02-27 21:30:00,
2013-02-27 15:33:00,34.0,28.8,29.98,West,270,8.0,17.0,81,0.04,,,0.14,VWS V14.00,2013-02-27 21:33:00,
2013-02-27 15:35:00,34.0,28.5,29.98,WNW,293,6.0,17.0,80,0.04,,,0.14,VWS V14.00,2013-02-27 21:35:00,
2013-02-27 15:38:00,33.9,28.4,29.98,West,278,7.0,18.0,80,0.05,,,0.15,VWS V14.00,2013-02-27 21:38:00,
2013-02-27 15:40:00,33.9,28.4,29.98,NW,305,6.0,18.0,80,0.05,,,0.15,VWS V14.00,2013-02-27 21:40:00,
2013-02-27 15:45:00,33.8,28.0,29.98,WNW,292,10.0,19.0,79,0.04,,,0.15,VWS V14.00,2013-02-27 21:45:00,
2013-02-27 15:50:00,33.7,28.5,29.98,WNW,292,8.0,14.0,81,0.05,,,0.16,VWS V14.00,2013-02-27 21:50:00,
2013-02-27 16:00:00,33.8,28.6,29.99,WNW,285,6.0,8.0,81,0.04,,,0.16,VWS V14.00,2013-02-27 22:00:00,
2013-02-27 16:05:00,33.8,28.6,29.99,WNW,291,3.0,12.0,81,0.04,,,0.16,VWS V14.00,2013-02-27 22:05:00,
2013-02-27 16:10:00,33.7,28.8,29.99,NW,310,10.0,12.0,82,0.04,,,0.17,VWS V14.00,2013-02-27 22:10:00,
2013-02-27 16:15:00,33.3,28.4,29.99,WSW,253,7.0,18.0,82,0.04,,,0.17,VWS V14.00,2013-02-27 22:15:00,
2013-02-27 16:20:00,33.1,28.5,30.00,WNW,295,9.0,15.0,83,0.04,,,0.17,VWS V14.00,2013-02-27 22:20:00,
2013-02-27 16:25:00,33.1,28.5,30.00,West,271,6.0,11.0,83,0.03,,,0.17,VWS V14.00,2013-02-27 22:25:00,
2013-02-27 16:30:00,33.1,27.9,30.00,WNW,291,4.0,15.0,81,0.04,,,0.18,VWS V14.00,2013-02-27 22:30:00,
2013-02-27 16:35:00,33.0,28.1,30.00,WNW,289,9.0,16.0,82,0.04,,,0.18,VWS V14.00,2013-02-27 22:35:00,
2013-02-27 16:40:00,32.8,27.9,30.00,WNW,293,7.0,14.0,82,0.04,,,0.18,VWS V14.00,2013-02-27 22:40:00,
2013-02-27 16:45:00,32.6,27.7,30.00,NW,306,7.0,14.0,82,0.03,,,0.18,VWS V14.00,2013-02-27 22:45:00,
2013-02-27 16:50:00,32.5,27.6,30.00,WNW,292,10.0,12.0,82,0.03,,,0.18,VWS V14.00,2013-02-27 22:50:00,
2013-02-27 16:55:00,32.5,27.6,30.00,WNW,290,11.0,12.0,82,0.02,,,0.18,VWS V14.00,2013-02-27 22:55:00,
2013-02-27 17:00:00,32.4,27.5,30.00,WSW,250,7.0,9.0,82,0.02,,,0.18,VWS V14.00,2013-02-27 23:00:00,
2013-02-27 17:05:00,32.5,27.6,30.00,West,278,8.0,14.0,82,0.03,,,0.19,VWS V14.00,2013-02-27 23:05:00,
2013-02-27 17:10:00,32.5,27.6,30.00,West,269,2.0,14.0,82,0.03,,,0.19,VWS V14.00,2013-02-27 23:10:00,
2013-02-27 17:15:00,32.6,27.7,30.00,WNW,287,5.0,11.0,82,0.02,,,0.19,VWS V14.00,2013-02-27 23:15:00,
2013-02-27 17:20:00,32.5,27.6,30.00,West,273,6.0,12.0,82,0.02,,,0.19,VWS V14.00,2013-02-27 23:20:00,
2013-02-27 17:25:00,32.5,27.3,30.00,WNW,299,6.0,8.0,81,0.02,,,0.19,VWS V14.00,2013-02-27 23:25:00,
2013-02-27 17:30:00,32.4,27.5,30.01,WNW,289,5.0,5.0,82,0.01,,,0.19,VWS V14.00,2013-02-27 23:30:00,
2013-02-27 17:35:00,32.4,27.5,30.01,WNW,299,4.0,8.0,82,0.01,,,0.19,VWS V14.00,2013-02-27 23:35:00,
2013-02-27 17:40:00,32.3,27.4,30.01,WNW,284,7.0,8.0,82,0.01,,,0.19,VWS V14.00,2013-02-27 23:40:00,
2013-02-27 17:45:00,32.2,27.6,30.01,WNW,299,5.0,5.0,83,0.01,,,0.19,VWS V14.00,2013-02-27 23:45:00,
2013-02-27 17:50:00,32.1,27.2,30.01,West,278,7.0,7.0,82,0.01,,,0.19,VWS V14.00,2013-02-27 23:50:00,
2013-02-27 17:55:00,32.1,27.2,30.02,West,278,4.0,5.0,82,0.02,,,0.20,VWS V14.00,2013-02-27 23:55:00,
2013-02-27 18:00:00,32.0,27.1,30.02,WNW,289,3.0,4.0,82,0.02,,,0.20,VWS V14.00,2013-02-28 00:00:00,
2013-02-27 18:05:00,31.8,27.2,30.02,WNW,293,3.0,4.0,83,0.01,,,0.20,VWS V14.00,2013-02-28 00:05:00,
2013-02-27 18:10:00,31.7,26.8,30.02,West,273,4.0,7.0,82,0.01,,,0.20,VWS V14.00,2013-02-28 00:10:00,
2013-02-27 18:15:00,31.6,27.0,30.01,WNW,293,4.0,4.0,83,0.01,,,0.20,VWS V14.00,2013-02-28 00:15:00,
2013-02-27 18:20:00,31.4,27.1,30.01,WNW,291,6.0,6.0,84,0.01,,,0.20,VWS V14.00,2013-02-28 00:20:00,
2013-02-27 18:25:00,31.2,26.9,30.01,WNW,282,3.0,3.0,84,0.01,,,0.20,VWS V14.00,2013-02-28 00:25:00,
2013-02-27 18:31:00,31.1,26.8,30.02,WNW,282,5.0,6.0,84,0.01,,,0.20,VWS V14.00,2013-02-28 00:31:00,
2013-02-27 18:36:00,31.1,26.8,30.02,West,272,4.0,4.0,84,0.01,,,0.20,VWS V14.00,2013-02-28 00:36:00,
2013-02-27 18:41:00,31.0,26.7,30.02,West,260,4.0,6.0,84,0.01,,,0.20,VWS V14.00,2013-02-28 00:41:00,
2013-02-27 18:46:00,31.0,27.0,30.02,West,277,5.0,5.0,85,0.01,,,0.20,VWS V14.00,2013-02-28 00:46:00,
2013-02-27 18:51:00,30.9,26.9,30.02,West,270,3.0,5.0,85,0.01,,,0.20,VWS V14.00,2013-02-28 00:51:00,
2013-02-27 18:56:00,30.8,26.8,30.02,West,262,4.0,6.0,85,0.00,,,0.20,VWS V14.00,2013-02-28 00:56:00,
2013-02-27 19:01:00,30.7,26.7,30.02,West,275,5.0,5.0,85,0.00,,,0.20,VWS V14.00,2013-02-28 01:01:00,
2013-02-27 19:06:00,30.6,26.6,30.02,West,276,4.0,5.0,85,0.00,,,0.20,VWS V14.00,2013-02-28 01:06:00,
2013-02-27 19:11:00,30.4,26.4,30.02,West,268,5.0,5.0,85,0.00,,,0.20,VWS V14.00,2013-02-28 01:11:00,
2013-02-27 19:16:00,30.3,26.3,30.02,West,272,2.0,6.0,85,0.00,,,0.20,VWS V14.00,2013-02-28 01:16:00,
2013-02-27 19:21:00,30.3,26.3,30.02,West,268,5.0,5.0,85,0.00,,,0.20,VWS V14.00,2013-02-28 01:21:00,
2013-02-27 19:26:00,30.2,26.2,30.02,WSW,258,5.0,7.0,85,0.00,,,0.20,VWS V14.00,2013-02-28 01:26:00,
2013-02-27 19:31:00,30.1,26.1,30.02,West,262,4.0,5.0,85,0.00,,,0.20,VWS V14.00,2013-02-28 01:31:00,
2013-02-27 19:36:00,30.0,26.0,30.01,WSW,251,6.0,6.0,85,0.00,,,0.20,VWS V14.00,2013-02-28 01:36:00,
2013-02-27 19:41:00,29.9,26.0,30.02,WSW,246,3.0,4.0,85,0.00,,,0.20,VWS V14.00,2013-02-28 01:41:00,
2013-02-27 19:46:00,29.8,25.9,30.02,WSW,247,3.0,5.0,85,0.00,,,0.20,VWS V14.00,2013-02-28 01:46:00,
2013-02-27 19:51:00,29.8,25.9,30.02,WSW,253,4.0,8.0,85,0.00,,,0.20,VWS V14.00,2013-02-28 01:51:00,
2013-02-27 19:56:00,29.7,25.8,30.02,WSW,253,4.0,6.0,85,0.00,,,0.20,VWS V14.00,2013-02-28 01:56:00,
2013-02-27 20:01:00,29.6,25.6,30.02,WSW,248,7.0,7.0,85,0.00,,,0.20,VWS V14.00,2013-02-28 02:01:00,
2013-02-27 20:06:00,29.4,25.2,30.02,West,268,3.0,9.0,84,0.00,,,0.20,VWS V14.00,2013-02-28 02:06:00,
2013-02-27 20:11:00,29.3,25.4,30.02,West,259,5.0,6.0,85,0.00,,,0.20,VWS V14.00,2013-02-28 02:11:00,
2013-02-27 20:16:00,29.2,25.3,30.02,WSW,256,6.0,8.0,85,0.00,,,0.20,VWS V14.00,2013-02-28 02:16:00,
2013-02-27 20:21:00,29.2,25.3,30.02,WNW,282,8.0,8.0,85,0.00,,,0.20,VWS V14.00,2013-02-28 02:21:00,
2013-02-27 20:25:00,29.2,25.3,30.02,West,270,6.0,9.0,85,0.00,,,0.20,VWS V14.00,2013-02-28 02:25:00,
2013-02-27 20:30:00,29.2,25.3,30.02,West,270,5.0,9.0,85,0.00,,,0.20,VWS V14.00,2013-02-28 02:30:00,
2013-02-27 20:35:00,29.2,25.3,30.02,West,270,7.0,10.0,85,0.00,,,0.20,VWS V14.00,2013-02-28 02:35:00,
2013-02-27 20:40:00,29.2,25.3,30.02,West,270,5.0,9.0,85,0.00,,,0.20,VWS V14.00,2013-02-28 02:40:00,
2013-02-27 20:45:00,29.3,25.4,30.02,West,270,5.0,8.0,85,0.00,,,0.20,VWS V14.00,2013-02-28 02:45:00,
2013-02-27 20:50:00,29.3,25.4,30.02,West,270,4.0,7.0,85,0.00,,,0.20,VWS V14.00,2013-02-28 02:50:00,
2013-02-27 20:55:00,29.4,25.5,30.02,West,270,5.0,8.0,85,0.00,,,0.20,VWS V14.00,2013-02-28 02:55:00,
2013-02-27 21:00:00,29.4,25.5,30.02,West,270,5.0,9.0,85,0.00,,,0.20,VWS V14.00,2013-02-28 03:00:00,
2013-02-27 21:05:00,29.4,25.5,30.02,West,270,5.0,10.0,85,0.00,,,0.20,VWS V14.00,2013-02-28 03:05:00,
2013-02-27 21:10:00,29.5,25.6,30.02,West,270,6.0,10.0,85,0.00,,,0.20,VWS V14.00,2013-02-28 03:10:00,
2013-02-27 21:15:00,29.5,25.6,30.03,West,270,6.0,11.0,85,0.00,,,0.20,VWS V14.00,2013-02-28 03:15:00,
2013-02-27 21:20:00,29.5,25.6,30.03,West,270,6.0,11.0,85,0.00,,,0.20,VWS V14.00,2013-02-28 03:20:00,
2013-02-27 21:25:00,29.5,25.6,30.03,West,270,6.0,11.0,85,0.00,,,0.20,VWS V14.00,2013-02-28 03:25:00,
2013-02-27 21:30:00,29.6,25.6,30.03,West,270,6.0,9.0,85,0.00,,,0.20,VWS V14.00,2013-02-28 03:30:00,
2013-02-27 21:35:00,29.6,25.6,30.03,West,270,5.0,9.0,85,0.00,,,0.20,VWS V14.00,2013-02-28 03:35:00,
2013-02-27 21:40:00,29.6,25.6,30.03,West,270,5.0,11.0,85,0.00,,,0.20,VWS V14.00,2013-02-28 03:40:00,
2013-02-27 21:45:00,29.7,25.8,30.03,WNW,292,6.0,13.0,85,0.00,,,0.20,VWS V14.00,2013-02-28 03:45:00,
2013-02-27 21:50:00,29.8,25.6,30.04,WNW,292,5.0,10.0,84,0.00,,,0.20,VWS V14.00,2013-02-28 03:50:00,
2013-02-27 21:55:00,29.9,26.0,30.03,WNW,292,6.0,11.0,85,0.00,,,0.20,VWS V14.00,2013-02-28 03:55:00,
2013-02-27 22:00:00,30.1,25.9,30.04,WNW,292,6.0,10.0,84,0.00,,,0.20,VWS V14.00,2013-02-28 04:00:00,
2013-02-27 22:05:00,30.2,26.0,30.04,WNW,292,7.0,12.0,84,0.00,,,0.20,VWS V14.00,2013-02-28 04:05:00,
2013-02-27 22:10:00,30.5,26.2,30.04,WNW,292,6.0,13.0,84,0.00,,,0.20,VWS V14.00,2013-02-28 04:10:00,
2013-02-27 22:15:00,30.5,26.0,30.04,WNW,292,7.0,11.0,83,0.00,,,0.20,VWS V14.00,2013-02-28 04:15:00,
2013-02-27 22:20:00,30.5,26.0,30.04,West,270,6.0,12.0,83,0.00,,,0.20,VWS V14.00,2013-02-28 04:20:00,
2013-02-27 22:25:00,30.6,26.1,30.05,West,270,4.0,6.0,83,0.00,,,0.20,VWS V14.00,2013-02-28 04:25:00,
2013-02-27 22:30:00,30.6,26.4,30.05,West,270,6.0,12.0,84,0.00,,,0.20,VWS V14.00,2013-02-28 04:30:00,
2013-02-27 22:35:00,30.6,26.4,30.05,WNW,292,5.0,10.0,84,0.00,,,0.20,VWS V14.00,2013-02-28 04:35:00,
2013-02-27 22:40:00,30.6,26.4,30.05,WNW,292,5.0,10.0,84,0.00,,,0.20,VWS V14.00,2013-02-28 04:40:00,
2013-02-27 22:45:00,30.7,26.5,30.05,WNW,292,6.0,10.0,84,0.00,,,0.20,VWS V14.00,2013-02-28 04:45:00,
2013-02-27 22:50:00,30.8,26.3,30.05,WNW,292,6.0,11.0,83,0.00,,,0.20,VWS V14.00,2013-02-28 04:50:00,
2013-02-27 22:55:00,30.8,26.3,30.05,West,270,5.0,10.0,83,0.00,,,0.20,VWS V14.00,2013-02-28 04:55:00,
2013-02-27 23:00:00,30.8,26.3,30.05,West,270,5.0,9.0,83,0.00,,,0.20,VWS V14.00,2013-02-28 05:00:00,
2013-02-27 23:05:00,30.7,26.2,30.05,WNW,292,5.0,10.0,83,0.00,,,0.20,VWS V14.00,2013-02-28 05:05:00,
2013-02-27 23:10:00,30.6,26.1,30.05,West,270,5.0,11.0,83,0.00,,,0.20,VWS V14.00,2013-02-28 05:10:00,
2013-02-27 23:15:00,30.5,26.0,30.05,West,270,6.0,11.0,83,0.00,,,0.20,VWS V14.00,2013-02-28 05:15:00,
2013-02-27 23:20:00,30.6,26.4,30.05,WNW,292,6.0,12.0,84,0.00,,,0.20,VWS V14.00,2013-02-28 05:20:00,
2013-02-27 23:25:00,30.7,26.5,30.05,WNW,292,6.0,11.0,84,0.00,,,0.20,VWS V14.00,2013-02-28 05:25:00,
2013-02-27 23:30:00,30.8,26.3,30.05,WNW,292,6.0,9.0,83,0.00,,,0.20,VWS V14.00,2013-02-28 05:30:00,
2013-02-27 23:35:00,31.0,26.5,30.05,WNW,292,8.0,13.0,83,0.00,,,0.20,VWS V14.00,2013-02-28 05:35:00,
2013-02-27 23:40:00,31.2,26.6,30.05,WNW,292,7.0,18.0,83,0.00,,,0.20,VWS V14.00,2013-02-28 05:40:00,
2013-02-27 23:45:00,31.4,26.5,30.05,WNW,292,8.0,14.0,82,0.00,,,0.20,VWS V14.00,2013-02-28 05:45:00,
2013-02-27 23:50:00,31.6,26.8,30.05,WNW,292,7.0,12.0,82,0.00,,,0.20,VWS V14.00,2013-02-28 05:50:00,
2013-02-27 23:55:00,31.7,26.5,30.05,WNW,292,9.0,15.0,81,0.00,,,0.20,VWS V14.00,2013-02-28 05:55:00,